This is the latest recevied weather packets stored in our database for station/object OK1FET-16. If no packets are shown the sender has not sent any weather packets the latest 1 day(s).
| Time | Temp. | Humidity | Pressure | Rain* | Wind** | Luminosity | Snow |
|---|---|---|---|---|---|---|---|
| 1777965664 | 16.67° C | 75% | 1007.7 hPa | - | 1.34 m/s, 211° | - | - |
| 1777965664 | 16.67° C | 75% | 1007.7 hPa | - | 1.34 m/s, 211° | - | - |
| 1777964853 | - | - | - | - | 1.79 m/s, 188° | - | - |
| 1777964853 | 16.11° C | 87% | 1007.7 hPa | - | 1.79 m/s, 188° | - | - |
| 1777964853 | 16.11° C | 87% | - | - | 1.79 m/s, 188° | - | - |
| 1777964853 | 16.11° C | 87% | 1007.7 hPa | - | 1.79 m/s, 188° | - | - |
| 1777964313 | 16.11° C | 67% | 1007.6 hPa | - | 1.79 m/s, 217° | - | - |
| 1777964313 | 16.11° C | 67% | 1007.6 hPa | - | 1.79 m/s, 217° | - | - |
| 1777964312 | 16.11° C | 67% | 1007.6 hPa | - | 1.79 m/s, 217° | - | - |
| 1777964042 | 16.11° C | 88% | 1007.7 hPa | - | 1.79 m/s, 203° | - | - |
| 1777964042 | 16.11° C | 88% | 1007.7 hPa | - | 1.79 m/s, 203° | - | - |
| 1777964042 | 16.11° C | 88% | 1007.7 hPa | - | 1.79 m/s, 203° | - | - |
| 1777964042 | 16.11° C | 88% | 1007.7 hPa | - | 1.79 m/s, 203° | - | - |
| 1777963772 | 16.11° C | 100% | 1007.7 hPa | - | 1.79 m/s, 177° | - | - |
| 1777963772 | 16.11° C | 100% | 1007.7 hPa | - | 1.79 m/s, 177° | - | - |
| 1777963772 | 16.11° C | 100% | 1007.7 hPa | - | 1.79 m/s, 177° | - | - |
| 1777962151 | 15° C | 100% | 1007.8 hPa | - | 2.24 m/s, 187° | - | - |
| 1777962150 | 15° C | 100% | 1007.8 hPa | - | 2.24 m/s, 187° | - | - |
| 1777962150 | 15° C | 100% | 1007.8 hPa | - | 2.24 m/s, 187° | - | - |
| 1777960256 | 13.89° C | 100% | 1007.8 hPa | - | 3.13 m/s, 180° | - | - |
| 1777956752 | 11.67° C | 83% | 1007.7 hPa | - | 4.47 m/s, 177° | - | - |
| 1777956751 | 11.67° C | 83% | 1007.7 hPa | - | 4.47 m/s, 177° | - | - |
| 1777956751 | 11.67° C | 83% | 1007.7 hPa | - | 4.47 m/s, 177° | - | - |
| 1777956482 | 11.67° C | 83% | 1007.7 hPa | - | 3.13 m/s, 180° | - | - |
| 1777956482 | 11.67° C | 83% | 1007.7 hPa | - | 3.13 m/s, 180° | - | - |
* Rain since midnight (hover to see other rain measurements)
** Current wind speed in m/s (hover to see current wind gust speed)